User: anonymous
Location: Caltech
(34.1382°N, 118.1253°W)
Time: 15:24:37
(UTC-07:00)
Language:

ADEOS II - Orbit

View from above orbital plane
View from above orbital plane
View from above satellite
View from above satellite

Ground track
Ground track

The orbit data is extracted from the following two-line orbital elements,

1 27597U 02056A   14265.50392900  .00000215  00000-0  10532-3 0  4086
2 27597 098.2773 268.1916 0001823 073.9213 076.0169 14.26860288612979
Epoch (UTC): 22 September 2014 12:05:39
Eccentricity: 0.0001823
inclination: 98.2773°
perigee height: 801 km
apogee height: 803 km
right ascension of ascending node: 268.1916°
argument of perigee: 73.9213°
revolutions per day: 14.26860288
mean anomaly at epoch: 76.0169°
orbit number at epoch: 61297

The dashed part of the orbit path shows where the satellite is in the earth's shadow,  

DLR